Hourly Data Report for December 01, 2018

CARBERRY CS
MANITOBA
Current Station Operator: ECCC - MSC

49°54'20.900" N
99°21'26.800" W
383.50 m
5010547
71170
WZE

Download Data

Hourly Data (December 2018)
Hourly Data Report for December 1, 2018
TIME
LST
Temp Definition
°C
Dew Point Definition
°C
Rel Hum Definition
%
Precip. Amount Definition
mm

Wind Dir Definition
10's deg

Wind Spd Definition
km/h
Visibility Definition
km
Stn Press Definition
kPa
Hmdx Definition


Wind Chill Definition


Weather Definition


00:00 -6.0 -6.5 96 0.0 10 5   96.92   -8 LegendNANA
01:00 -6.2 -6.8 95 0.0 11 5   96.92   -9 LegendNANA
02:00 -6.4 -7.1 95 0.0 11 4   96.90   -8 LegendNANA
03:00 -6.5 -7.2 95 0.0 12 2   96.96   -7 LegendNANA
04:00 -6.8 -7.6 94 0.0 10 3   96.94   -8 LegendNANA
05:00 -6.7 -7.4 95 0.0 11 3   96.95   -8 LegendNANA
06:00 -6.6 -7.3 95 0.0 10 8   97.00   -10 LegendNANA
07:00 -6.3 -7.0 95 0.0 8 4   97.09   -8 LegendNANA
08:00 -6.3 -6.9 95 0.0 4 5   97.11   -9 LegendNANA
09:00 -5.8 -6.3 96 0.0 5 6   97.09   -9 LegendNANA
10:00 -5.5 -6.1 95 0.0 7 9   97.10   -10 LegendNANA
11:00 -5.4 -6.1 95 0.0 6 10   97.09   -10 LegendNANA
12:00 -5.7 -6.5 94 0.0 6 11   97.07   -10 LegendNANA
13:00 -6.4 -7.2 94 0.0 6 12   97.07   -12 LegendNANA
14:00 -6.8 -7.6 94 0.0 6 12   97.06   -12 LegendNANA
15:00 -7.2 -8.1 94 0.0 6 15   97.09   -13 LegendNANA
16:00 -7.4 -8.3 94 0.0 6 13   97.12   -13 LegendNANA
17:00 -8.1 -9.0 93 0.0 5 14   97.20   -14 LegendNANA
18:00 -8.5 -9.5 92 0.0 4 13   97.25   -14 LegendNANA
19:00 -8.8 -9.8 92 0.0 4 12   97.27   -14 LegendNANA
20:00 -8.6 -9.7 92 0.0 6 9   97.32   -13 LegendNANA
21:00 -9.0 -10.0 92 0.0 3 12   97.35   -15 LegendNANA
22:00 -8.9 -9.9 92 0.0 4 11   97.34   -14 LegendNANA
23:00 -9.0 -10.0 92 0.0 3 14   97.29   -15 LegendNANA

Notes on Data Quality.

Legend

  • E = Estimated
  • M = Missing
  • NA = Not Available*
  • [empty] = Indicates an unobserved value
Date modified: